Time,TemperatureF,DewpointF,PressureIn,WindDirection,WindDirectionDegrees,WindSpeedMPH,WindSpeedGustMPH,Humidity,HourlyPrecipIn,Conditions,Clouds,dailyrainin,SoftwareType,DateUTC
2013-03-23 00:02:00,36.0,35.0,30.30,North,0,0.0,0.0,97,35.04,,,-99.99,,2013-03-23 07:02:00,
2013-03-23 00:12:00,36.0,35.0,30.30,North,0,0.0,0.0,97,35.04,,,-99.99,,2013-03-23 07:12:00,
2013-03-23 00:22:00,36.0,35.0,30.30,North,0,0.0,0.0,97,35.04,,,-99.99,,2013-03-23 07:22:00,
2013-03-23 00:32:00,36.0,35.0,30.30,North,0,0.0,0.0,97,35.04,,,-99.99,,2013-03-23 07:32:00,
2013-03-23 00:52:00,36.0,35.0,30.31,North,0,0.0,0.0,98,35.04,,,-99.99,,2013-03-23 07:52:00,
2013-03-23 01:02:00,36.0,35.0,30.32,North,0,0.0,0.0,98,35.04,,,-99.99,,2013-03-23 08:02:00,
2013-03-23 01:12:00,36.0,35.0,30.32,North,0,0.0,0.0,98,35.04,,,-99.99,,2013-03-23 08:12:00,
2013-03-23 01:22:00,36.0,35.0,30.32,North,0,0.0,0.0,98,35.04,,,-99.99,,2013-03-23 08:22:00,
2013-03-23 01:32:00,36.0,35.0,30.32,North,0,0.0,0.0,98,35.04,,,-99.99,,2013-03-23 08:32:00,
2013-03-23 01:42:00,36.0,35.0,30.32,North,0,0.0,0.0,98,35.04,,,-99.99,,2013-03-23 08:42:00,
2013-03-23 01:52:00,35.0,34.0,30.32,North,0,0.0,0.0,98,35.04,,,-99.99,,2013-03-23 08:52:00,
2013-03-23 02:02:00,35.0,34.0,30.32,North,0,0.0,0.0,98,35.04,,,-99.99,,2013-03-23 09:02:00,
2013-03-23 02:11:00,35.0,34.0,30.32,North,0,0.0,0.0,98,35.04,,,-99.99,,2013-03-23 09:11:00,
2013-03-23 02:21:00,35.0,34.0,30.32,North,0,0.0,0.0,98,35.04,,,-99.99,,2013-03-23 09:21:00,
2013-03-23 03:24:00,34.0,34.0,30.33,North,0,0.0,0.0,98,35.04,,,-99.99,,2013-03-23 10:24:00,
2013-03-23 03:34:00,34.0,34.0,30.33,North,0,0.0,0.0,98,35.04,,,-99.99,,2013-03-23 10:34:00,
2013-03-23 03:43:00,34.0,34.0,30.33,North,0,0.0,0.0,98,35.04,,,-99.99,,2013-03-23 10:43:00,
2013-03-23 03:52:00,34.0,34.0,30.33,North,0,0.0,0.0,98,35.04,,,-99.99,,2013-03-23 10:52:00,
2013-03-23 04:02:00,34.0,34.0,30.33,North,0,0.0,0.0,98,35.04,,,-99.99,,2013-03-23 11:02:00,
2013-03-23 04:12:00,34.0,34.0,30.33,North,0,0.0,0.0,98,35.04,,,-99.99,,2013-03-23 11:12:00,
2013-03-23 04:22:00,34.0,34.0,30.33,North,0,0.0,0.0,98,35.04,,,-99.99,,2013-03-23 11:22:00,
2013-03-23 04:32:00,34.0,34.0,30.33,North,0,0.0,0.0,98,35.04,,,-99.99,,2013-03-23 11:32:00,
2013-03-23 04:40:00,33.0,32.0,30.33,North,0,0.0,0.0,98,35.04,,,-99.99,,2013-03-23 11:40:00,
2013-03-23 04:41:00,34.0,34.0,30.33,North,0,0.0,0.0,98,35.04,,,-99.99,,2013-03-23 11:41:00,
2013-03-23 04:51:00,33.0,32.0,30.33,North,0,0.0,0.0,98,35.04,,,-99.99,,2013-03-23 11:51:00,
2013-03-23 05:02:00,33.0,32.0,30.33,North,0,0.0,0.0,98,35.04,,,-99.99,,2013-03-23 12:02:00,
2013-03-23 05:12:00,33.0,32.0,30.33,North,0,0.0,0.0,98,35.04,,,-99.99,,2013-03-23 12:12:00,
2013-03-23 05:21:00,33.0,32.0,30.33,North,0,0.0,0.0,98,35.04,,,-99.99,,2013-03-23 12:21:00,
2013-03-23 05:32:00,33.0,32.0,30.33,North,0,0.0,0.0,98,35.04,,,-99.99,,2013-03-23 12:32:00,
2013-03-23 06:02:00,32.0,32.0,30.32,North,0,0.0,0.0,98,35.04,,,-99.99,,2013-03-23 13:02:00,
2013-03-23 06:12:00,32.0,32.0,30.32,North,0,0.0,0.0,98,35.04,,,-99.99,,2013-03-23 13:12:00,
2013-03-23 06:22:00,33.0,32.0,30.33,North,0,0.0,0.0,98,35.04,,,-99.99,,2013-03-23 13:22:00,
2013-03-23 06:32:00,33.0,32.0,30.33,North,0,0.0,0.0,98,35.04,,,-99.99,,2013-03-23 13:32:00,
2013-03-23 06:42:00,33.0,32.0,30.33,North,0,0.0,0.0,98,35.04,,,-99.99,,2013-03-23 13:42:00,
2013-03-23 06:53:00,33.0,32.0,30.33,North,0,0.0,0.0,98,35.04,,,-99.99,,2013-03-23 13:53:00,
2013-03-23 07:00:00,32.0,32.0,30.34,North,0,0.0,0.0,98,35.04,,,-99.99,,2013-03-23 14:00:00,
2013-03-23 07:02:00,33.0,32.0,30.33,North,0,0.0,0.0,98,35.04,,,-99.99,,2013-03-23 14:02:00,
2013-03-23 07:12:00,33.0,32.0,30.33,North,0,0.0,0.0,98,35.04,,,-99.99,,2013-03-23 14:12:00,
2013-03-23 07:22:00,32.0,32.0,30.34,North,0,0.0,0.0,98,35.04,,,-99.99,,2013-03-23 14:22:00,
2013-03-23 07:32:00,32.0,32.0,30.34,North,0,0.0,0.0,98,35.04,,,-99.99,,2013-03-23 14:32:00,
2013-03-23 07:42:00,32.0,32.0,30.34,North,0,0.0,0.0,98,35.04,,,-99.99,,2013-03-23 14:42:00,
2013-03-23 07:52:00,32.0,32.0,30.34,North,0,0.0,0.0,98,35.04,,,-99.99,,2013-03-23 14:52:00,
2013-03-23 08:34:00,33.0,32.0,30.32,North,0,0.0,0.0,98,35.04,,,-99.99,,2013-03-23 15:34:00,
2013-03-23 08:44:00,33.0,32.0,30.32,North,0,0.0,0.0,98,35.04,,,-99.99,,2013-03-23 15:44:00,
2013-03-23 08:53:00,33.0,32.0,30.32,North,0,0.0,0.0,98,35.04,,,-99.99,,2013-03-23 15:53:00,
2013-03-23 09:03:00,33.0,32.0,30.31,North,0,0.0,0.0,98,35.04,,,-99.99,,2013-03-23 16:03:00,
2013-03-23 09:12:00,33.0,32.0,30.31,North,0,0.0,0.0,98,35.04,,,-99.99,,2013-03-23 16:12:00,
2013-03-23 09:22:00,33.0,32.0,30.31,North,0,0.0,0.0,98,35.04,,,-99.99,,2013-03-23 16:22:00,
2013-03-23 09:32:00,34.0,33.0,30.31,North,0,0.0,0.0,97,35.04,,,-99.99,,2013-03-23 16:32:00,
2013-03-23 09:42:00,34.0,33.0,30.31,North,0,0.0,0.0,97,35.04,,,-99.99,,2013-03-23 16:42:00,
2013-03-23 09:53:00,34.0,33.0,30.31,North,0,0.0,0.0,97,35.04,,,-99.99,,2013-03-23 16:53:00,
2013-03-23 10:02:00,34.0,32.0,30.32,North,0,0.0,0.0,94,35.04,,,-99.99,,2013-03-23 17:02:00,
2013-03-23 10:11:00,34.0,32.0,30.32,North,0,0.0,0.0,94,35.04,,,-99.99,,2013-03-23 17:11:00,
2013-03-23 10:22:00,34.0,32.0,30.32,North,0,0.0,0.0,94,35.04,,,-99.99,,2013-03-23 17:22:00,
2013-03-23 10:32:00,35.0,33.0,30.31,North,0,0.0,0.0,92,35.04,,,-99.99,,2013-03-23 17:32:00,
2013-03-23 10:42:00,35.0,33.0,30.31,North,0,0.0,0.0,92,35.04,,,-99.99,,2013-03-23 17:42:00,
2013-03-23 10:52:00,36.0,34.0,30.32,North,0,0.0,0.0,92,35.04,,,-99.99,,2013-03-23 17:52:00,
2013-03-23 11:02:00,36.0,34.0,30.32,North,0,0.0,0.0,92,35.04,,,-99.99,,2013-03-23 18:02:00,
2013-03-23 11:12:00,36.0,34.0,30.32,North,0,0.0,0.0,92,35.04,,,-99.99,,2013-03-23 18:12:00,
2013-03-23 11:22:00,38.0,34.0,30.31,North,0,0.0,0.0,87,35.04,,,-99.99,,2013-03-23 18:22:00,
2013-03-23 11:32:00,38.0,34.0,30.31,North,0,0.0,0.0,87,35.04,,,-99.99,,2013-03-23 18:32:00,
2013-03-23 12:00:00,40.0,33.0,30.30,North,0,0.0,0.0,77,35.04,,,-99.99,,2013-03-23 19:00:00,
2013-03-23 12:23:00,40.0,33.0,30.30,North,0,0.0,0.0,77,35.04,,,-99.99,,2013-03-23 19:23:00,
2013-03-23 12:33:00,40.0,33.0,30.30,North,0,0.0,0.0,77,35.04,,,-99.99,,2013-03-23 19:33:00,
2013-03-23 12:43:00,40.0,33.0,30.30,North,0,0.0,0.0,77,35.04,,,-99.99,,2013-03-23 19:43:00,
2013-03-23 12:52:00,40.0,33.0,30.30,North,0,0.0,0.0,77,35.04,,,-99.99,,2013-03-23 19:52:00,
2013-03-23 14:02:00,45.0,32.0,30.27,NW,311,3.0,6.0,59,35.04,,,-99.99,,2013-03-23 21:02:00,
2013-03-23 14:12:00,45.0,32.0,30.27,NW,311,3.0,6.0,59,35.04,,,-99.99,,2013-03-23 21:12:00,
2013-03-23 14:22:00,47.0,32.0,30.26,South,190,1.0,5.0,56,35.04,,,-99.99,,2013-03-23 21:22:00,
2013-03-23 14:32:00,47.0,32.0,30.26,South,190,1.0,5.0,56,35.04,,,-99.99,,2013-03-23 21:32:00,
2013-03-23 14:53:00,47.0,29.0,30.24,NW,315,1.0,5.0,49,35.04,,,-99.99,,2013-03-23 21:53:00,
2013-03-23 15:02:00,48.0,30.0,30.23,South,183,1.0,4.0,49,35.04,,,-99.99,,2013-03-23 22:02:00,
2013-03-23 15:12:00,48.0,30.0,30.23,South,183,1.0,4.0,49,35.04,,,-99.99,,2013-03-23 22:12:00,
2013-03-23 15:22:00,48.0,30.0,30.23,South,183,1.0,4.0,49,35.04,,,-99.99,,2013-03-23 22:22:00,
2013-03-23 15:32:00,48.0,30.0,30.23,South,183,1.0,4.0,49,35.04,,,-99.99,,2013-03-23 22:32:00,
2013-03-23 15:53:00,49.0,29.0,30.22,North,0,0.0,0.0,46,35.04,,,-99.99,,2013-03-23 22:53:00,
2013-03-23 16:02:00,49.0,26.0,30.21,SW,229,2.0,6.0,41,35.04,,,-99.99,,2013-03-23 23:02:00,
2013-03-23 16:12:00,49.0,26.0,30.21,SW,229,2.0,6.0,41,35.04,,,-99.99,,2013-03-23 23:12:00,
2013-03-23 16:22:00,49.0,23.0,30.22,North,0,0.0,0.0,35,35.04,,,-99.99,,2013-03-23 23:22:00,
2013-03-23 16:32:00,49.0,23.0,30.22,North,0,0.0,0.0,35,35.04,,,-99.99,,2013-03-23 23:32:00,
2013-03-23 16:42:00,49.0,23.0,30.22,North,0,0.0,0.0,35,35.04,,,-99.99,,2013-03-23 23:42:00,
2013-03-23 16:52:00,50.0,28.0,30.21,WSW,250,2.0,7.0,42,35.04,,,-99.99,,2013-03-23 23:52:00,
2013-03-23 17:01:00,50.0,28.0,30.21,WSW,250,2.0,7.0,42,35.04,,,-99.99,,2013-03-24 00:01:00,
2013-03-23 17:12:00,50.0,28.0,30.21,WSW,250,2.0,7.0,42,35.04,,,-99.99,,2013-03-24 00:12:00,
2013-03-23 17:22:00,50.0,31.0,30.21,South,173,2.0,7.0,47,35.04,,,-99.99,,2013-03-24 00:22:00,
2013-03-23 17:32:00,50.0,32.0,30.20,North,0,0.0,0.0,49,35.04,,,-99.99,,2013-03-24 00:32:00,
2013-03-23 17:52:00,51.0,35.0,30.19,SW,231,1.0,5.0,55,35.04,,,-99.99,,2013-03-24 00:52:00,
2013-03-23 18:02:00,50.0,35.0,30.19,SW,222,2.0,6.0,56,35.04,,,-99.99,,2013-03-24 01:02:00,
2013-03-23 18:22:00,49.0,37.0,30.19,North,0,0.0,0.0,62,35.04,,,-99.99,,2013-03-24 01:22:00,
2013-03-23 18:52:00,48.0,37.0,30.20,North,0,0.0,0.0,65,35.04,,,-99.99,,2013-03-24 01:52:00,
2013-03-23 19:00:00,44.0,37.0,30.20,North,0,0.0,0.0,76,35.04,,,-99.99,,2013-03-24 02:00:00,
2013-03-23 19:02:00,46.0,37.0,30.20,North,0,0.0,0.0,71,35.04,,,-99.99,,2013-03-24 02:02:00,
2013-03-23 19:12:00,46.0,37.0,30.20,North,0,0.0,0.0,71,35.04,,,-99.99,,2013-03-24 02:12:00,
2013-03-23 19:21:00,44.0,37.0,30.20,North,0,0.0,0.0,76,35.04,,,-99.99,,2013-03-24 02:21:00,
2013-03-23 19:32:00,44.0,37.0,30.20,North,0,0.0,0.0,76,35.04,,,-99.99,,2013-03-24 02:32:00,
2013-03-23 20:33:00,38.0,36.0,30.21,North,0,0.0,0.0,92,35.04,,,-99.99,,2013-03-24 03:33:00,
2013-03-23 20:43:00,38.0,36.0,30.21,North,0,0.0,0.0,92,35.04,,,-99.99,,2013-03-24 03:43:00,
2013-03-23 20:53:00,37.0,35.0,30.22,North,0,0.0,0.0,94,35.04,,,-99.99,,2013-03-24 03:53:00,
2013-03-23 21:02:00,37.0,35.0,30.22,North,0,0.0,0.0,94,35.04,,,-99.99,,2013-03-24 04:02:00,
2013-03-23 21:12:00,37.0,35.0,30.22,North,0,0.0,0.0,94,35.04,,,-99.99,,2013-03-24 04:12:00,
2013-03-23 21:22:00,37.0,35.0,30.22,North,0,0.0,0.0,94,35.04,,,-99.99,,2013-03-24 04:22:00,
2013-03-23 21:40:00,35.0,34.0,30.24,North,0,0.0,0.0,96,35.04,,,-99.99,,2013-03-24 04:40:00,
2013-03-23 22:02:00,35.0,34.0,30.24,North,0,0.0,0.0,96,35.04,,,-99.99,,2013-03-24 05:02:00,
2013-03-23 22:12:00,35.0,34.0,30.24,North,0,0.0,0.0,96,35.04,,,-99.99,,2013-03-24 05:12:00,
2013-03-23 22:22:00,35.0,34.0,30.24,North,0,0.0,0.0,96,35.04,,,-99.99,,2013-03-24 05:22:00,
2013-03-23 22:32:00,35.0,34.0,30.24,North,0,0.0,0.0,96,35.04,,,-99.99,,2013-03-24 05:32:00,
2013-03-23 23:22:00,34.0,33.0,30.25,North,0,0.0,0.0,97,35.04,,,-99.99,,2013-03-24 06:22:00,
2013-03-23 23:32:00,34.0,33.0,30.25,North,0,0.0,0.0,97,35.04,,,-99.99,,2013-03-24 06:32:00,
2013-03-23 23:42:00,34.0,33.0,30.25,North,0,0.0,0.0,97,35.04,,,-99.99,,2013-03-24 06:42:00,
2013-03-23 23:51:00,34.0,33.0,30.25,North,0,0.0,0.0,97,35.04,,,-99.99,,2013-03-24 06:51:00,